Location: Chuathbaluk
(61.5726°N, 159.2454°W)
Time: 17:20:04
(UTC+00:00)

ITAMSAT 1 - Pass Details

Date: 19 January 2021
Orbit: 784 x 796 km, 98.9° (Epoch: 05 March)

Event Time Altitude Azimuth Distance (km) Brightness Sun altitude
Rises 03:46:37 0° 161° (SSE) 3,277 10.9 -10.8°
Reaches altitude 10° 03:48:56 10° 162° (SSE) 2,350 10.2 -11.1°
Maximum altitude 03:54:08 83° 251° (WSW) 802 7.8 -11.6°
Drops below altitude 10° 03:59:22 10° 340° (NNW) 2,360 10.1 -12.2°
Sets 04:01:42 0° 341° (NNW) 3,292 10.9 -12.5°
